Flag for United Kingdom Weather past 2 weeks in Blackpool, England, United Kingdom

50 °F

Sprinkles. Broken clouds.

Feels Like: 41 °F
Forecast: 48 / 53 °F
Wind: 35 mph from Southwest

Location: Blackpool Airport

Current Time: Nov 29, 2015 at 10:44:49 AM

Latest Report: Nov 29, 2015 at 9:50 AM

Visibility: 4 mi

Pressure: 29.42 "Hg

Humidity: 88%

Dew point: 46 °F

Location of BlackpoolLocation

Historic Weather in Blackpool — Graph


Blackpool temperature yesterday

Maximum temperature yesterday: 50 °F (at 4:50 PM)
Minimum temperature yesterday: 45 °F (at 6:20 AM)
Average temperature yesterday: 47 °F

Past Weeks' High & Low Weather Summary

High57 °F (Nov 14, 8:20 PM)100% (Nov 14, 4:20 PM)30.21 "Hg (Nov 14, 4:20 PM)
Low32 °F (Nov 23, 6:20 AM)48% (Nov 21, 8:20 AM)29.18 "Hg (Nov 17, 5:20 PM)
Average48 °F83%29.77 "Hg
* Reported Nov 14 9:20 AM — Nov 29 9:20 AM, Blackpool, Weather by CustomWeather, © 2015

Note: Actual official high and low records may vary slightly from our data, if they occured in-between our weather recording intervals... More about our weather records


Blackpool weather history for previous 24 hours

Time TempWeatherWind HumidityBarometerVisibility
9:20 AM
Sun, Nov 29
50 °FRain showers. Broken clouds.37 mph88%29.42 "Hg4 mi
8:20 AM48 °FSprinkles. Broken clouds.33 mph94%29.45 "Hg6 mi
7:50 AM50 °FSprinkles. Partly cloudy.31 mph88%29.45 "Hg6 mi
6:20 AM48 °FSprinkles. Partly cloudy.26 mph94%29.47 "Hg4 mi
8:50 PM
Sat, Nov 28
48 °FPassing clouds.32 mph76%29.47 "HgN/A
8:20 PM48 °FLight rain. Passing clouds.28 mph87%29.47 "HgN/A
7:50 PM45 °FRain. Partly cloudy.32 mph93%29.47 "HgN/A
7:20 PM48 °FRain showers. Partly cloudy.29 mph87%29.47 "HgN/A
6:50 PM48 °FRain showers. Partly cloudy.35 mph82%29.45 "HgN/A
6:20 PM50 °FSprinkles. Partly cloudy.36 mph76%29.45 "HgN/A
5:50 PM50 °FPassing clouds.31 mph71%29.45 "HgN/A
5:20 PM50 °FPartly cloudy.32 mph76%29.45 "HgN/A
4:50 PM50 °FPassing clouds.38 mph76%29.45 "HgN/A
4:20 PM48 °FPassing clouds.31 mph82%29.45 "Hg6 mi
3:50 PM48 °FPassing clouds.30 mph82%29.45 "Hg6 mi
3:20 PM46 °FScattered showers. Scattered clouds.29 mph93%29.45 "Hg5 mi
2:50 PM46 °FRain showers. Broken clouds.36 mph87%29.47 "Hg1 mi
2:20 PM48 °FScattered showers. Cloudy.33 mph87%29.47 "Hg6 mi
1:50 PM48 °FRain showers. Broken clouds.35 mph87%29.47 "Hg4 mi
1:20 PM48 °FSprinkles. Broken clouds.36 mph87%29.50 "Hg5 mi
12:50 PM46 °FRain showers. Partly sunny.32 mph93%29.53 "Hg4 mi
12:20 PM46 °FRain showers. Partly sunny.36 mph87%29.56 "Hg4 mi
11:50 AM46 °FRain showers. Partly sunny.33 mph87%29.59 "Hg6 mi
11:20 AM46 °FRain showers. Broken clouds.31 mph87%29.62 "Hg6 mi
10:50 AM46 °FPartly sunny.32 mph87%29.65 "Hg6 mi
10:20 AM46 °FScattered clouds.33 mph82%29.65 "HgN/A
Weather by CustomWeather, © 2015

See weather overviewHow to use our weather pages